STARLINK-5218 (55636 NORAD) Tracking and Keplerian Element Data

This shows tracking and keplerian element data for the satellite.

Feedback or suggestion? Click here.




ElementValue
Catalog55636
NameSTARLINK-5218
Epoch Orbit624
Epoch Day85.16815084
Epoch Year2023
RAAN48.4154
Inclination70.0034
Eccentricity0.000259
Argument of Perigee257.0357
Mean Anonmoly103.0541
Mean Motion15.51132453
Decay Rate-0.00020237
L11 55636U 23021J 23085.16815084 -.00020237 00000+0 -34375-3 0 9994
L22 55636 70.0034 48.4154 0002590 257.0357 103.0541 15.51132453 6248



Live tracking and technical data element details for STARLINK-5218 (NORAD 55636). STARLINK-5218 can be tracked NOW for your location showing map with azimuth and elevation plus other details from your city location.







IsCatalogInMostPopularTable: catalog: 55636, numindb: 2
Update: records affected: 1



GetName: 55636 STARLINK-5218

Hit Count: updated at: Tue, 28 Mar 2023 02:21:30 GMT